Weather History for Athens, OH

Change the Weather History Date:

Sunday, April 27, 2014

  Actual Average (KPKB) Record (KPKB)
Temperature  
Mean Temperature 56 °F 58 °F  
Max Temperature 70 °F 70 °F 94 °F (1986)
Min Temperature 43 °F 45 °F 32 °F (1971)
Degree Days  
Heating Degree Days 8 8  
Month to date heating degree days 322  
Since 1 July heating degree days 4783  
Cooling Degree Days 0 1  
Month to date cooling degree days 17  
Year to date cooling degree days 20  
Growing Degree Days 6 (Base 50)    
Moisture  
Dew Point 36 °F    
Average Humidity 48    
Maximum Humidity 70    
Minimum Humidity 30    
Precipitation  
Precipitation 0.00 in 0.11 in 0.49 in (2011)
Month to date precipitation 2.94  
Year to date precipitation 12.32  
Sea Level Pressure  
Sea Level Pressure 30.01 in    
Wind  
Wind Speed 7 mph (NE)    
Max Wind Speed 10 mph    
Max Gust Speed 17 mph    
Visibility 10 miles    
Events      
T = Trace of Precipitation, MM = Missing Value Source: NWS Daily Summary

Daily Weather History Graph

Daily Weather History Graph

Search for Another Location

Airport:

Trip Planner

Search our weather history database for the weather conditions in past years. The results will help you decide how hot, cold, wet, or windy it might be!

Date:

Astronomy

Apr. 27, 2014 Rise Set
Actual Time 6:35 AM EDT 8:18 PM EDT
Civil Twilight 6:06 AM EDT 8:46 PM EDT
Nautical Twilight 5:32 AM EDT 9:21 PM EDT
Astronomical Twilight 4:55 AM EDT 9:58 PM EDT
Moon 5:34 AM EDT 6:51 PM EDT
Length of Visible Light 14h 39m
Length of Day
13h 42m
Waning Crescent, 3% of the Moon is Illuminated
Apr 27
Waning Crescent
Apr 29
New
May 6
First Quarter
May 14
Full
May 21
Last Quarter

Hourly Weather History & Observations

Time (EDT) Temp. Windchill Dew Point Humidity Pressure Visibility Wind Dir Wind Speed Gust Speed Precip Events Conditions
12:15 AM 53.8 °F - 37.4 °F 54% 29.99 in 10.0 mi NNE 5.8 mph - N/A   Clear
12:35 AM 52.9 °F - 36.5 °F 54% 30.00 in 10.0 mi NNE 9.2 mph - N/A   Clear
12:55 AM 52.2 °F - 36.5 °F 55% 30.00 in 10.0 mi NNE 6.9 mph - N/A   Clear
1:15 AM 51.6 °F - 36.5 °F 56% 30.01 in 10.0 mi NNE 5.8 mph - N/A   Clear
1:35 AM 50.9 °F - 36.1 °F 57% 30.01 in 10.0 mi NNE 5.8 mph - N/A   Clear
1:55 AM 50.4 °F - 35.8 °F 57% 30.01 in 10.0 mi NNE 6.9 mph - N/A   Clear
2:15 AM 49.8 °F - 35.8 °F 59% 30.01 in 10.0 mi NNE 6.9 mph - N/A   Clear
2:35 AM 49.5 °F - 35.2 °F 58% 30.01 in 10.0 mi NNE 6.9 mph - N/A   Clear
2:55 AM 48.6 °F - 35.4 °F 60% 30.01 in 10.0 mi NNE 3.5 mph - N/A   Clear
3:15 AM 47.8 °F - 34.9 °F 61% 30.00 in 10.0 mi NNE 4.6 mph - N/A   Clear
3:35 AM 47.5 °F - 34.5 °F 61% 30.01 in 10.0 mi NNE 3.5 mph - N/A   Clear
3:55 AM 46.9 °F - 34.2 °F 61% 30.00 in 10.0 mi North 3.5 mph - N/A   Clear
4:15 AM 46.9 °F - 33.6 °F 60% 30.01 in 10.0 mi NNE 3.5 mph - N/A   Clear
4:35 AM 45.9 °F 43.6 °F 33.3 °F 61% 30.01 in 10.0 mi NNE 4.6 mph - N/A   Clear
4:55 AM 45.5 °F 44.2 °F 33.4 °F 63% 30.02 in 10.0 mi NNE 3.5 mph - N/A   Clear
5:15 AM 45.0 °F 41.8 °F 33.4 °F 64% 30.02 in 10.0 mi NNE 5.8 mph - N/A   Clear
5:35 AM 44.6 °F 41.4 °F 33.8 °F 66% 30.03 in 10.0 mi NNE 5.8 mph - N/A   Clear
6:15 AM 43.9 °F 40.5 °F 33.6 °F 67% 30.04 in 10.0 mi NNE 5.8 mph - N/A   Clear
6:35 AM 43.2 °F 39.0 °F 33.8 °F 70% 30.05 in 10.0 mi NNE 6.9 mph - N/A   Clear
6:55 AM 43.0 °F 39.5 °F 33.8 °F 70% 30.06 in 10.0 mi NNE 5.8 mph - N/A   Clear
7:15 AM 43.7 °F 39.7 °F 34.3 °F 70% 30.06 in 10.0 mi NE 6.9 mph - N/A   Clear
7:35 AM 44.6 °F 40.2 °F 34.7 °F 68% 30.07 in 10.0 mi NE 8.1 mph - N/A   Clear
7:55 AM 45.3 °F 41.6 °F 35.2 °F 68% 30.08 in 10.0 mi NE 6.9 mph - N/A   Clear
8:15 AM 45.9 °F 41.2 °F 35.1 °F 66% 30.09 in 10.0 mi NE 9.2 mph - N/A   Clear
8:55 AM 47.8 °F - 35.6 °F 63% 30.10 in 10.0 mi NE 5.8 mph - N/A   Clear
9:15 AM 49.1 °F - 36.0 °F 61% 30.09 in 10.0 mi NE 6.9 mph - N/A   Clear
9:35 AM 50.0 °F - 36.1 °F 59% 30.09 in 10.0 mi NE 4.6 mph - N/A   Clear
9:55 AM 51.3 °F - 35.8 °F 55% 30.09 in 10.0 mi NNE 5.8 mph - N/A   Clear
10:15 AM 52.9 °F - 36.7 °F 54% 30.09 in 10.0 mi NNE 9.2 mph - N/A   Clear
10:35 AM 53.8 °F - 36.3 °F 52% 30.09 in 10.0 mi NNE 8.1 mph - N/A   Clear
10:55 AM 54.9 °F - 36.0 °F 49% 30.09 in 10.0 mi NE 3.5 mph - N/A   Clear
11:15 AM 56.5 °F - 37.0 °F 48% 30.08 in 10.0 mi ENE 6.9 mph - N/A   Clear
11:35 AM 57.7 °F - 34.5 °F 42% 30.09 in 10.0 mi NE 6.9 mph - N/A   Clear
11:55 AM 59.0 °F - 36.9 °F 44% 30.08 in 10.0 mi NNE 6.9 mph - N/A   Clear
12:15 PM 59.4 °F - 36.5 °F 43% 30.06 in 10.0 mi NNE 6.9 mph - N/A   Clear
12:35 PM 60.8 °F - 36.5 °F 40% 30.04 in 10.0 mi NNE 10.4 mph 17.3 mph N/A   Clear
12:55 PM 61.3 °F - 36.9 °F 40% 30.04 in 10.0 mi ENE 8.1 mph - N/A   Clear
1:15 PM 62.4 °F - 37.6 °F 40% 30.03 in 10.0 mi NE 8.1 mph - N/A   Clear
1:35 PM 63.7 °F - 36.1 °F 36% 30.02 in 10.0 mi NE 6.9 mph - N/A   Clear
1:55 PM 64.8 °F - 37.2 °F 36% 30.01 in 10.0 mi NE 8.1 mph - N/A   Clear
2:15 PM 65.7 °F - 37.0 °F 35% 30.00 in 10.0 mi ENE 9.2 mph - N/A   Clear
2:35 PM 66.2 °F - 35.6 °F 32% 30.00 in 10.0 mi NE 6.9 mph - N/A   Clear
2:55 PM 66.9 °F - 36.9 °F 33% 29.99 in 10.0 mi NNE 10.4 mph - N/A   Clear
3:15 PM 67.6 °F - 37.2 °F 33% 29.99 in 10.0 mi NNE 8.1 mph - N/A   Clear
3:35 PM 68.7 °F - 38.1 °F 33% 29.99 in 10.0 mi NNE 9.2 mph - N/A   Clear
3:55 PM 69.3 °F - 38.3 °F 32% 29.97 in 10.0 mi ENE 6.9 mph - N/A   Clear
4:15 PM 69.3 °F - 37.6 °F 31% 29.96 in 10.0 mi NNE 8.1 mph - N/A   Clear
4:35 PM 69.8 °F - 36.9 °F 30% 29.96 in 10.0 mi NNE 9.2 mph - N/A   Clear
4:55 PM 70.2 °F - 37.0 °F 30% 29.95 in 10.0 mi NNE 10.4 mph - N/A   Clear
5:15 PM 70.3 °F - 37.8 °F 30% 29.95 in 10.0 mi NE 10.4 mph - N/A   Clear
5:35 PM 70.3 °F - 37.4 °F 30% 29.95 in 10.0 mi ENE 9.2 mph - N/A   Clear
6:15 PM 69.6 °F - 38.3 °F 32% 29.94 in 10.0 mi NE 9.2 mph - N/A   Clear
6:35 PM 68.5 °F - 37.4 °F 32% 29.94 in 10.0 mi ENE 6.9 mph - N/A   Clear
6:55 PM 68.0 °F - 38.3 °F 34% 29.94 in 10.0 mi ENE 6.9 mph - N/A   Clear
7:15 PM 66.2 °F - 39.7 °F 38% 29.94 in 10.0 mi ENE 6.9 mph - N/A   Clear
7:35 PM 64.4 °F - 39.7 °F 40% 29.94 in 10.0 mi NE 9.2 mph - N/A   Clear
7:55 PM 63.0 °F - 39.4 °F 42% 29.95 in 10.0 mi NE 5.8 mph - N/A   Clear
8:15 PM 63.3 °F - 37.6 °F 39% 29.96 in 10.0 mi NE 5.8 mph - N/A   Clear
8:55 PM 61.5 °F - 37.2 °F 41% 29.95 in 10.0 mi ENE 6.9 mph - N/A   Clear
9:15 PM 60.1 °F - 38.1 °F 44% 29.94 in 10.0 mi ENE 8.1 mph - N/A   Clear
9:35 PM 60.3 °F - 36.3 °F 41% 29.94 in 10.0 mi ENE 5.8 mph - N/A   Clear
9:55 PM 59.9 °F - 35.6 °F 40% 29.95 in 10.0 mi ENE 4.6 mph - N/A   Clear
10:15 PM 60.8 °F - 34.0 °F 37% 29.95 in 10.0 mi Calm Calm - N/A   Clear
10:35 PM 60.4 °F - 34.0 °F 37% 29.95 in 10.0 mi NE 4.6 mph - N/A   Clear
10:55 PM 58.6 °F - 35.2 °F 42% 29.95 in 10.0 mi NE 6.9 mph - N/A   Clear
11:15 PM 58.1 °F - 34.9 °F 42% 29.95 in 10.0 mi ENE 5.8 mph - N/A   Clear
11:35 PM 57.4 °F - 34.9 °F 43% 29.94 in 10.0 mi ENE 8.1 mph - N/A   Clear
11:55 PM 57.0 °F - 34.9 °F 43% 29.94 in 10.0 mi ENE 9.2 mph - N/A   Clear